Hourly Data Report for October 27, 2015

All times are specified in Local Standard Time (LST). Add 1 hour to adjust for Daylight Saving Time where and when it is observed.

TORONTO INTL A
ONTARIO

43°40'36.000" N
79°37'50.000" W
173.40 m
6158731
71624
YYZ

Download Data

Hourly Data (October 2015)
Hourly Data Report for October 27, 2015
Temp Definition
°C
Dew Point Temp Definition
°C
Rel Hum Definition
%
Wind Dir Definition
10's deg

Wind Spd Definition
km/h
Visibility Definition
km
Stn Press Definition
kPa
Hmdx Definition


Wind Chill Definition


Weather Definition


TIME
00:00 Legend Double Dagger 6.4 1.9 73 12 6 24.1 101.13     LegendNANA
01:00 Legend Double Dagger 5.9 2.0 76 6 4 24.1 101.11     Cloudy
02:00 Legend Double Dagger 4.5 1.5 81 2 8 24.1 101.09     LegendNANA
03:00 Legend Double Dagger 3.2 0.8 84 1 8 24.1 101.08     LegendNANA
04:00 Legend Double Dagger 3.1 0.7 84 2 10 24.1 101.06     Mostly Cloudy
05:00 Legend Double Dagger 2.8 0.5 85 36 7 24.1 101.10     LegendNANA
06:00 Legend Double Dagger 3.1 0.5 83 1 10 24.1 101.12     LegendNANA
07:00 Legend Double Dagger 3.4 1.0 84 2 9 24.1 101.16     Mostly Cloudy
08:00 Legend Double Dagger 5.6 2.3 79 6 6 24.1 101.15     LegendNANA
09:00 Legend Double Dagger 8.0 2.3 67 9 15 24.1 101.22     LegendNANA
10:00 Legend Double Dagger 9.4 3.2 65 9 13 24.1 101.24     Mostly Cloudy
11:00 Legend Double Dagger 10.1 3.2 62 10 22 24.1 101.20     LegendNANA
12:00 Legend Double Dagger 10.5 4.0 64 8 17 24.1 101.12     LegendNANA
13:00 Legend Double Dagger 11.1 3.7 60 6 18 24.1 101.03     Mostly Cloudy
14:00 Legend Double Dagger 10.7 2.6 57 7 16 24.1 100.94     LegendNANA
15:00 Legend Double Dagger 10.1 0.2 50 9 22 24.1 100.87     LegendNANA
16:00 Legend Double Dagger 9.0 0.7 56 8 17 24.1 100.83     Mostly Cloudy
17:00 Legend Double Dagger 8.2 1.8 64 8 20 24.1 100.74     LegendNANA
18:00 Legend Double Dagger 8.0 1.2 62 9 20 24.1 100.73     LegendNANA
19:00 Legend Double Dagger 8.2 2.5 67 8 23 24.1 100.71     Cloudy
20:00 Legend Double Dagger 8.2 2.7 68 9 20 24.1 100.66     LegendNANA
21:00 Legend Double Dagger 8.2 2.5 67 9 22 24.1 100.59     LegendNANA
22:00 Legend Double Dagger 8.0 3.5 73 8 21 24.1 100.50     Cloudy
23:00 Legend Double Dagger 8.5 5.3 80 9 14 24.1 100.43     LegendNANA

Notes on Data Quality.

Legend

  • E = Estimated
  • M = Missing
  • NA = Not Available
  • ‡ = Partner data that is not subject to review by the National Climate Archives
Date modified: